DECAYED

STARLINK-1773, 46679 (Decayed)

Orbit data source: Space-Track

STARLINK-1773, 46679 was a payload satellite owned by SpaceX/Seattle (US) in LEO that was launched on Sun, 18 Oct 2020 UTC via an FALCON 9 launch vehicle from the Air Force Eastern Test Range (AFETR). Payload-class satellites include a variety of spacecraft equipped with specific instruments for various scientific and technological missions. These include communications satellites like Starlink; space stations such as the ISS; scientific satellites like the Hubble; Earth observation satellites from companies like Planet Labs, Umbra, and HawkEye 360; GPS; miniature CubeSats for education and research; and military/defense satellites.

Not visible in the next 10 days
Identifier
46679, 2020-073K
Orbit
Decayed
Country
Flag of USUS
Related business
Manufacturer
SpaceX/Seattle
Mission
Decayed Commercial Communications
Bus & Motor
STARLINK, Unknown motor
Mass
260 kg wet, ~248 kg dry
Launch date (UTC)
Icon of a cake. It is the launch day of the satellite!2020-10-18 (5 years ago)
Launch vehicle
FALCON 9
Launch site
Air Force Eastern Test Range (AFETR)
Object type
Payload
Rocket body
Debris
Shape & HBR
Box + 1 Pan, 10.1 m
Radar Cross Section
13.562 m², Large (>1 m²)

Expand to show TLE details & history
Last TLE update: 2 months ago

TLE from 2 months ago
0 STARLINK-1773
1 46679U 20073K   25224.46876844  .34644078  12711-4  26364-3 0  9992
2 46679  53.0104  22.6513 0006915 272.4860 191.0557 16.52254740267173
Epoch: 2025-08-12T11:15Z
TLE epoch observation values (Epoch: 2025-08-12T11:15:01.593Z)
Latitude
51.10679°
Longitude
4.55108°
Altitude
143.825 km
Speed
7.824 km/s
True Right ascension
08h 57m 52s
True Declination
50° 55' 22"
Sunlit
Object was in daylight at epoch
Visualization orbit readout
Latitude
Unknown
Longitude
Unknown
Altitude
Unknown
Speed
Unknown
Apparent Right ascension
Unknown
Apparent Declination
Unknown
Sunlit
N/A
Visualization observer readout
Local Sidereal Time
07:46:29
Azimuth
Unknown
Elevation
Unknown
Doppler factor
Unknown
Orbital elements
Apogee altitude
138.203 km
Perigee altitude
129.197 km
Semi-major axis
6,511.837 km
Eccentricity
0.00069
Inclination
53.0104°
RAAN
22.6513°
Arg. of periapsis
272.486°
True anomaly
191.04052°
Mean anomaly
191.0557°
Eccentric anomaly
191.04811°
Mean motion
4.13036 °/min
Orbital period
87.16 mins
BSTAR
0.00026364
Loading maneuver chart data...
Computing Atmospheric mass density...
Loading historical data...
Loading historical data...
Loading historical data...
Loading historical data...
Loading historical data...
Loading historical data...
Loading historical data...

Documentation

Showing up to 5 results
|